Location: Newark
(51.3318°N, 0.0053°E)
Time: 07:17:15
(UTC+00:00)

M-CUBED/EXP-1 PRIME - Pass Details

Date: 04 July 2022
Orbit: 422 x 631 km, 101.7° (Epoch: 15 August)

Event Time Altitude Azimuth Distance (km) Brightness Sun altitude
Exits shadow 01:08:43 27° 168° (SSE) 894 ? -14.4°
Maximum altitude 01:10:25 75° 251° (WSW) 469 ? -14.4°
Drops below altitude 10° 01:13:52 10° 337° (NNW) 1,630 ? -14.2°
Sets 01:15:59 0° 339° (NNW) 2,545 ? -14.1°
